Home > Weather > Klagenfurt > Past weeks

Flag for Austria Weather for the Past 2 Weeks in Klagenfurt, Carinthia, Austria

Now
34 °F

More clouds than sun.


Feels Like: 31 °F
Forecast: 31 / 59 °F
Wind: 3 mph from Northwest

Location: Klagenfurt-Flughafen

Current Time: Apr 29, 2016 at 9:01:53 AM

Latest Report: Apr 29, 2016 at 8:20 AM


Visibility: 4 mi

Pressure: 30.18 "Hg

Humidity: 93%

Dew Point: 32 °F

Location of KlagenfurtLocation

Historic Weather in Klagenfurt — Graph

°F

Klagenfurt Temperature Yesterday

Maximum temperature yesterday: 43 °F (at 2:50 PM)
Minimum temperature yesterday: 30 °F (at 12:50 AM)
Average temperature yesterday: 36 °F

High & Low Weather Summary for the Past Weeks

 TemperatureHumidityPressure
High73 °F (Apr 22, 3:20 PM)100% (Apr 23, 4:50 AM)30.33 "Hg (Apr 23, 4:50 AM)
Low28 °F (Apr 26, 3:20 AM)19% (Apr 25, 4:50 PM)29.59 "Hg (Apr 23, 3:20 PM)
Average50 °F66%29.91 "Hg
* Reported Apr 14 6:20 AM — Apr 29 6:50 AM, Klagenfurt, Weather by CustomWeather, © 2016

Note: Actual official high and low records may vary slightly from our data, if they occured in-between our weather recording intervals... More about our weather records

Advertising

Klagenfurt Weather History for the Previous 24 Hours

Scroll right to see more
 ConditionsComfort  
Time TempWeatherWind HumidityBarometerVisibility
6:50 AM
Fri, Apr 29
32 °FIce fog.5 mph100%30.15 "Hg3 mi
6:20 AM32 °FSleet. Ice fog.3 mph100%30.15 "Hg3 mi
5:50 AM32 °FSleet. Overcast.3 mph100%30.15 "Hg2 mi
5:20 AM32 °FSleet. Ice fog.3 mph100%30.15 "Hg4 mi
4:50 AM32 °FSnow. Overcast.1 mph100%30.15 "Hg2 mi
4:20 AM32 °FSleet. Overcast.3 mph100%30.15 "Hg1 mi
3:50 AM32 °FIce fog.5 mph100%30.15 "Hg1 mi
2:50 AM32 °FPassing clouds.3 mph100%30.12 "Hg1 mi
2:20 AM32 °FPassing clouds.3 mph100%30.12 "Hg1 mi
1:50 AM32 °FChilly.3 mph100%30.12 "Hg1 mi
12:50 AM30 °FIce fog.5 mph100%30.12 "Hg1 mi
12:20 AM30 °FIce fog.6 mph100%30.12 "Hg0 mi
11:50 PM
Thu, Apr 28
32 °FPassing clouds.6 mph100%30.12 "Hg1 mi
11:20 PM32 °FFog.3 mph100%30.12 "Hg4 mi
10:50 PM34 °FFog.5 mph93%30.09 "Hg4 mi
10:20 PM34 °FFog.5 mph100%30.09 "Hg5 mi
9:50 PM36 °FPassing clouds.2 mph93%30.09 "HgN/A
9:20 PM36 °FPassing clouds.1 mph93%30.09 "HgN/A
8:50 PM36 °FPartly sunny.1 mph93%30.09 "HgN/A
8:20 PM37 °FPartly sunny.2 mph87%30.07 "HgN/A
7:50 PM39 °FPartly sunny.3 mph87%30.07 "HgN/A
7:20 PM39 °FPartly sunny.5 mph81%30.07 "HgN/A
6:50 PM41 °FPartly sunny.3 mph76%30.07 "HgN/A
6:20 PM41 °FPartly sunny.2 mph61%30.07 "HgN/A
5:50 PM41 °FPartly sunny.3 mph61%30.07 "HgN/A
5:20 PM41 °FScattered clouds.3 mph61%30.04 "HgN/A
4:50 PM43 °FScattered clouds.3 mph61%30.04 "HgN/A
4:20 PM43 °FScattered clouds.2 mph61%30.04 "HgN/A
3:50 PM41 °FScattered clouds.3 mph66%30.04 "HgN/A
2:50 PM43 °FPartly sunny.3 mph66%30.04 "HgN/A
2:20 PM41 °FPartly sunny.2 mph76%30.07 "HgN/A
1:50 PM39 °FBroken clouds.2 mph81%30.07 "HgN/A
1:20 PM37 °FBroken clouds.1 mph81%30.07 "HgN/A
12:50 PM39 °FBroken clouds.1 mph75%30.07 "HgN/A
12:20 PM36 °FPartly sunny.1 mph87%30.07 "Hg5 mi
11:50 AM36 °FLight snow. Partly sunny.1 mph87%30.07 "Hg4 mi
11:20 AM36 °FLight snow. Fog.2 mph87%30.07 "Hg2 mi
10:50 AM34 °FLight snow. Fog.2 mph93%30.07 "Hg2 mi
10:20 AM34 °FSnow. Fog.2 mph93%30.07 "Hg1 mi
9:50 AM32 °FSnow. Ice fog.1 mph93%30.07 "Hg1 mi
9:20 AM32 °FSnow. Ice fog.1 mph93%30.07 "Hg1 mi
Weather by CustomWeather, © 2016

See weather overviewHow to use our weather pages